�������l�o���
Date,Time,MP-1(��Sv/h),MP-2(��Sv/h),MP-3(��Sv/h),MP-4(��Sv/h),MP-5(��Sv/h),MP-6(��Sv/h),MP-7(��Sv/h),MP-8(��Sv/h),����,����(m/s),���J
2017/10/28,00:00,0.902,1.436,0.903,1.711,1.166,0.497,0.909,0.842,�k�k��,4.0,��
2017/10/28,00:10,0.900,1.435,0.902,1.711,1.165,0.498,0.909,0.843,�k�k��,4.0,��
2017/10/28,00:20,0.901,1.436,0.902,1.711,1.166,0.497,0.908,0.844,�k,4.5,��
2017/10/28,00:30,0.902,1.434,0.903,1.711,1.166,0.496,0.908,0.842,�k,5.4,��
2017/10/28,00:40,0.901,1.440,0.904,1.714,1.167,0.499,0.907,0.842,�k�k��,5.0,��
2017/10/28,00:50,0.901,1.434,0.904,1.712,1.165,0.496,0.908,0.843,�k�k��,4.5,��
2017/10/28,01:00,0.900,1.438,0.904,1.712,1.167,0.499,0.907,0.844,�k�k��,4.4,��
2017/10/28,01:10,0.900,1.438,0.901,1.709,1.168,0.496,0.908,0.843,�k,3.9,��
2017/10/28,01:20,0.902,1.436,0.901,1.712,1.168,0.499,0.907,0.845,�k�k��,3.8,��
2017/10/28,01:30,0.901,1.437,0.902,1.712,1.168,0.496,0.907,0.842,�k�k��,3.5,��
2017/10/28,01:40,0.901,1.435,0.903,1.710,1.165,0.496,0.906,0.844,�k�k��,3.9,��
2017/10/28,01:50,0.899,1.437,0.902,1.711,1.164,0.497,0.907,0.844,�k�k��,3.7,��
2017/10/28,02:00,0.900,1.434,0.902,1.710,1.163,0.498,0.906,0.843,�k�k��,3.3,��
2017/10/28,02:10,0.901,1.435,0.900,1.710,1.167,0.496,0.907,0.843,�k�k��,3.7,��
2017/10/28,02:20,0.899,1.436,0.902,1.712,1.163,0.498,0.907,0.844,�k�k��,3.5,��
2017/10/28,02:30,0.901,1.435,0.903,1.711,1.165,0.497,0.906,0.842,�k,3.2,��
2017/10/28,02:40,0.899,1.434,0.903,1.711,1.165,0.497,0.909,0.843,�k,2.6,��
2017/10/28,02:50,0.898,1.435,0.902,1.711,1.163,0.497,0.907,0.843,�k,3.0,��
2017/10/28,03:00,0.900,1.434,0.901,1.712,1.164,0.498,0.908,0.842,�k,2.9,��
2017/10/28,03:10,0.901,1.434,0.903,1.713,1.165,0.497,0.909,0.842,�k,3.0,��
2017/10/28,03:20,0.901,1.436,0.903,1.709,1.166,0.498,0.906,0.843,�k,2.9,��
2017/10/28,03:30,0.901,1.434,0.902,1.711,1.164,0.497,0.907,0.843,�k,2.8,��
2017/10/28,03:40,0.903,1.436,0.902,1.711,1.167,0.498,0.908,0.843,�k�k��,2.9,��
2017/10/28,03:50,0.901,1.434,0.902,1.709,1.165,0.499,0.907,0.842,�k,2.2,��
2017/10/28,04:00,0.898,1.432,0.903,1.712,1.164,0.499,0.907,0.843,�k,3.0,��
2017/10/28,04:10,0.898,1.434,0.902,1.714,1.166,0.499,0.906,0.843,�k,3.3,��
2017/10/28,04:20,0.900,1.431,0.900,1.710,1.166,0.498,0.906,0.843,�k,3.0,��
2017/10/28,04:30,0.900,1.434,0.902,1.711,1.164,0.496,0.907,0.844,�k�k��,3.0,��
2017/10/28,04:40,0.898,1.435,0.901,1.709,1.166,0.496,0.907,0.841,�k�k��,3.7,��
2017/10/28,04:50,0.899,1.430,0.903,1.712,1.168,0.497,0.908,0.843,�k�k��,3.0,��
2017/10/28,05:00,0.899,1.435,0.902,1.710,1.164,0.497,0.907,0.842,�k�k��,2.3,��
2017/10/28,05:10,0.902,1.433,0.901,1.708,1.167,0.499,0.907,0.842,�k�k��,3.0,��
2017/10/28,05:20,0.900,1.435,0.902,1.711,1.165,0.495,0.908,0.844,�k�k��,3.2,��
2017/10/28,05:30,0.902,1.432,0.904,1.711,1.164,0.495,0.908,0.843,�k�k��,3.7,��
2017/10/28,05:40,0.899,1.435,0.901,1.711,1.165,0.497,0.907,0.841,�k�k��,4.2,��
2017/10/28,05:50,0.899,1.434,0.902,1.711,1.166,0.498,0.908,0.845,�k�k��,3.7,��
2017/10/28,06:00,0.898,1.434,0.901,1.711,1.163,0.497,0.908,0.844,�k�k��,3.5,��
2017/10/28,06:10,0.898,1.436,0.903,1.715,1.164,0.498,0.906,0.842,�k�k��,3.7,��
2017/10/28,06:20,0.899,1.432,0.903,1.711,1.166,0.497,0.906,0.843,�k�k��,3.3,��
2017/10/28,06:30,0.900,1.433,0.901,1.713,1.164,0.496,0.905,0.842,�k�k��,3.0,��
2017/10/28,06:40,0.900,1.432,0.901,1.712,1.163,0.496,0.907,0.841,�k�k��,3.5,��
2017/10/28,06:50,0.900,1.431,0.902,1.710,1.165,0.496,0.906,0.843,�k�k��,3.2,��
2017/10/28,07:00,0.900,1.432,0.903,1.712,1.165,0.497,0.908,0.843,�k�k��,3.5,��
2017/10/28,07:10,0.900,1.434,0.903,1.711,1.165,0.497,0.907,0.843,�k�k��,2.6,��
2017/10/28,07:20,0.899,1.434,0.903,1.711,1.165,0.496,0.908,0.844,�k�k��,2.9,��
2017/10/28,07:30,0.899,1.433,0.901,1.710,1.164,0.496,0.907,0.842,�k��,2.9,��
2017/10/28,07:40,0.900,1.435,0.902,1.711,1.164,0.496,0.908,0.843,�k��,2.6,��
2017/10/28,07:50,0.900,1.434,0.901,1.711,1.166,0.498,0.907,0.843,�k�k��,3.1,��
2017/10/28,08:00,0.900,1.433,0.903,1.712,1.165,0.498,0.908,0.843,�k�k��,3.0,��
2017/10/28,08:10,0.900,1.436,0.904,1.712,1.162,0.498,0.908,0.843,�k�k��,2.8,��
2017/10/28,08:20,0.898,1.437,0.903,1.712,1.166,0.498,0.906,0.843,�k�k��,3.1,��
2017/10/28,08:30,0.899,1.434,0.900,1.711,1.166,0.499,0.907,0.844,�k�k��,3.7,��
2017/10/28,08:40,0.901,1.437,0.902,1.715,1.168,0.497,0.908,0.842,�k�k��,3.8,��
2017/10/28,08:50,0.903,1.437,0.904,1.715,1.168,0.496,0.906,0.844,�k�k��,3.9,��
2017/10/28,09:00,0.902,1.438,0.904,1.712,1.166,0.496,0.908,0.846,�k�k��,3.2,��
2017/10/28,09:10,0.902,1.439,0.904,1.715,1.168,0.498,0.906,0.845,�k�k��,3.1,��
2017/10/28,09:20,0.904,1.437,0.904,1.715,1.169,0.498,0.905,0.845,�k,3.3,��
2017/10/28,09:30,0.901,1.437,0.905,1.715,1.170,0.497,0.908,0.844,�k,2.6,��
2017/10/28,09:40,0.903,1.430,0.904,1.714,1.168,0.498,0.905,0.844,�k�k��,2.0,��
2017/10/28,09:50,0.903,1.435,0.904,1.712,1.167,0.497,0.908,0.843,�k,1.7,��
2017/10/28,10:00,0.901,1.432,0.906,1.715,1.167,0.497,0.906,0.844,�k�k��,2.0,��
2017/10/28,10:10,0.900,1.430,0.903,1.714,1.169,0.496,0.906,0.842,�k�k��,2.0,��
2017/10/28,10:20,0.899,1.435,0.903,1.712,1.167,0.498,0.905,0.843,�k�k��,1.5,��
2017/10/28,10:30,0.902,1.435,0.907,1.713,1.166,0.496,0.907,0.842,�k�k��,1.9,��
2017/10/28,10:40,0.900,1.434,0.904,1.715,1.166,0.495,0.907,0.844,�k��,1.7,��
2017/10/28,10:50,0.899,1.434,0.905,1.714,1.169,0.496,0.908,0.843,�k�k��,1.5,��
2017/10/28,11:00,0.900,1.434,0.904,1.714,1.168,0.497,0.906,0.841,�k,2.0,��
2017/10/28,11:10,0.900,1.438,0.907,1.715,1.168,0.499,0.907,0.841,�k�k��,2.0,��
2017/10/28,11:20,0.900,1.432,0.904,1.714,1.167,0.498,0.908,0.843,�k�k��,2.0,��
2017/10/28,11:30,0.901,1.437,0.906,1.718,1.167,0.497,0.908,0.844,�k�k��,2.6,��
2017/10/28,11:40,0.901,1.438,0.904,1.713,1.170,0.496,0.908,0.842,�k�k��,2.3,��
2017/10/28,11:50,0.899,1.437,0.905,1.716,1.166,0.495,0.907,0.842,�k��,2.3,��
2017/10/28,12:00,0.901,1.438,0.904,1.716,1.167,0.497,0.906,0.843,�k��,1.4,��
2017/10/28,12:10,0.899,1.435,0.903,1.716,1.167,0.497,0.907,0.844,���k��,1.5,��
2017/10/28,12:20,0.900,1.438,0.906,1.716,1.169,0.496,0.909,0.844,�k,2.0,��
2017/10/28,12:30,0.902,1.439,0.907,1.717,1.166,0.496,0.907,0.843,�k�k��,1.5,��
2017/10/28,12:40,0.902,1.438,0.907,1.716,1.166,0.496,0.908,0.843,�k,1.5,��
2017/10/28,12:50,0.901,1.436,0.905,1.716,1.167,0.497,0.906,0.843,�k,1.5,��
2017/10/28,13:00,0.903,1.437,0.904,1.717,1.168,0.497,0.909,0.845,���k��,1.5,��
2017/10/28,13:10,0.902,1.437,0.905,1.716,1.167,0.497,0.908,0.842,���k��,1.5,��
2017/10/28,13:20,0.902,1.438,0.906,1.717,1.168,0.497,0.908,0.843,�k��,1.4,��
2017/10/28,13:30,0.901,1.435,0.904,1.718,1.168,0.495,0.909,0.842,�k,1.7,��
2017/10/28,13:40,0.902,1.438,0.902,1.717,1.167,0.496,0.907,0.844,�k,1.5,��
2017/10/28,13:50,0.903,1.436,0.901,1.717,1.168,0.497,0.908,0.842,�k,1.7,��
2017/10/28,14:00,0.902,1.438,0.903,1.717,1.168,0.497,0.907,0.842,�k,1.5,��
2017/10/28,14:10,0.902,1.437,0.905,1.716,1.167,0.497,0.908,0.843,�k,1.7,��
2017/10/28,14:20,0.901,1.436,0.904,1.714,1.165,0.497,0.907,0.843,�k�k��,2.0,��
2017/10/28,14:30,0.902,1.440,0.905,1.716,1.168,0.497,0.909,0.844,�k�k��,1.9,��
2017/10/28,14:40,0.905,1.440,0.904,1.718,1.171,0.499,0.906,0.842,���k��,0.9,��
2017/10/28,14:50,0.905,1.444,0.907,1.719,1.169,0.497,0.908,0.843,��,0.9,��
2017/10/28,15:00,0.905,1.443,0.905,1.719,1.172,0.498,0.908,0.844,�k�k��,0.6,��
2017/10/28,15:10,0.905,1.442,0.907,1.715,1.173,0.498,0.907,0.845,�k,1.2,��
2017/10/28,15:20,0.905,1.442,0.906,1.720,1.171,0.499,0.907,0.843,�k,1.2,��
2017/10/28,15:30,0.906,1.442,0.907,1.717,1.171,0.498,0.907,0.845,�k,1.5,��
2017/10/28,15:40,0.902,1.443,0.907,1.717,1.170,0.499,0.908,0.843,�k�k��,1.5,��
2017/10/28,15:50,0.904,1.443,0.905,1.718,1.171,0.498,0.907,0.844,�k��,0.9,��
2017/10/28,16:00,0.905,1.442,0.906,1.718,1.171,0.499,0.907,0.845,��,0.8,��
2017/10/28,16:10,0.905,1.443,0.907,1.719,1.172,0.498,0.908,0.845,��,1.4,��
2017/10/28,16:20,0.904,1.443,0.905,1.717,1.171,0.499,0.908,0.847,�쐼,1.2,��
2017/10/28,16:30,0.906,1.443,0.906,1.715,1.171,0.499,0.908,0.845,���쐼,0.9,��
2017/10/28,16:40,0.903,1.442,0.904,1.718,1.171,0.499,0.909,0.846,��,0.9,��
2017/10/28,16:50,0.905,1.445,0.906,1.717,1.171,0.497,0.908,0.844,�쐼,0.9,��
2017/10/28,17:00,0.906,1.443,0.904,1.717,1.172,0.500,0.909,0.846,���k��,0.9,��
2017/10/28,17:10,0.905,1.441,0.907,1.716,1.173,0.498,0.910,0.845,�k��,1.2,��
2017/10/28,17:20,0.902,1.442,0.906,1.718,1.171,0.498,0.908,0.845,�k��,1.5,��
2017/10/28,17:30,0.906,1.443,0.906,1.716,1.171,0.498,0.908,0.846,�k��,1.5,��
2017/10/28,17:40,0.902,1.443,0.905,1.717,1.173,0.498,0.909,0.845,�k��,1.2,��
2017/10/28,17:50,0.905,1.442,0.904,1.719,1.171,0.499,0.909,0.843,�k��,1.5,��
2017/10/28,18:00,0.905,1.443,0.905,1.717,1.172,0.499,0.908,0.844,�k��,0.6,��
2017/10/28,18:10,0.905,1.443,0.905,1.716,1.172,0.497,0.909,0.845,-,CALM,��
2017/10/28,18:20,0.904,1.442,0.905,1.715,1.171,0.499,0.911,0.845,���k��,0.9,��
2017/10/28,18:30,0.904,1.444,0.906,1.719,1.172,0.499,0.908,0.845,���쐼,0.6,��
2017/10/28,18:40,0.904,1.444,0.906,1.717,1.173,0.497,0.909,0.845,���쐼,0.8,��
2017/10/28,18:50,0.904,1.442,0.907,1.718,1.172,0.497,0.910,0.846,��,0.9,��
2017/10/28,19:00,0.903,1.443,0.906,1.718,1.167,0.496,0.910,0.843,���k��,1.5,��
2017/10/28,19:10,0.904,1.444,0.905,1.716,1.173,0.499,0.906,0.845,��,1.7,��
2017/10/28,19:20,0.905,1.440,0.906,1.716,1.172,0.498,0.908,0.846,��,1.4,��
2017/10/28,19:30,0.904,1.445,0.906,1.715,1.171,0.498,0.908,0.845,���쐼,1.2,��
2017/10/28,19:40,0.903,1.446,0.906,1.718,1.171,0.498,0.909,0.845,�쐼,0.9,��
2017/10/28,19:50,0.903,1.444,0.905,1.717,1.171,0.498,0.909,0.844,�쐼,1.2,�L
2017/10/28,20:00,0.906,1.445,0.905,1.716,1.173,0.499,0.908,0.845,���k��,0.8,�L
2017/10/28,20:10,0.903,1.442,0.905,1.716,1.174,0.497,0.908,0.845,���쐼,0.9,�L
2017/10/28,20:20,0.903,1.443,0.905,1.717,1.171,0.499,0.909,0.844,�쐼,0.9,�L
2017/10/28,20:30,0.902,1.444,0.904,1.716,1.173,0.499,0.908,0.846,�쐼,1.2,�L
2017/10/28,20:40,0.904,1.443,0.906,1.718,1.171,0.499,0.909,0.845,�쐼,1.2,�L
2017/10/28,20:50,0.905,1.443,0.906,1.718,1.170,0.500,0.908,0.845,�쐼,1.2,�L
2017/10/28,21:00,0.903,1.442,0.904,1.718,1.170,0.499,0.907,0.845,�쐼,1.1,�L
2017/10/28,21:10,0.903,1.444,0.906,1.715,1.171,0.500,0.907,0.845,-,CALM,�L
2017/10/28,21:20,0.904,1.441,0.906,1.718,1.171,0.499,0.908,0.846,-,CALM,�L
2017/10/28,21:30,0.904,1.441,0.904,1.715,1.171,0.499,0.907,0.846,-,CALM,�L
2017/10/28,21:40,0.903,1.443,0.907,1.717,1.173,0.500,0.908,0.846,-,CALM,�L
2017/10/28,21:50,0.901,1.441,0.906,1.718,1.170,0.499,0.909,0.844,��,0.6,�L
2017/10/28,22:00,0.904,1.442,0.905,1.718,1.170,0.499,0.908,0.846,���k��,0.8,�L
2017/10/28,22:10,0.900,1.440,0.905,1.717,1.169,0.498,0.907,0.846,��,0.9,�L
2017/10/28,22:20,0.902,1.441,0.904,1.715,1.167,0.499,0.908,0.846,���k��,1.2,�L
2017/10/28,22:30,0.904,1.440,0.905,1.713,1.170,0.500,0.906,0.845,���k��,1.5,�L
2017/10/28,22:40,0.902,1.440,0.904,1.715,1.169,0.497,0.907,0.844,�쐼,1.1,�L
2017/10/28,22:50,0.902,1.442,0.904,1.716,1.168,0.499,0.905,0.842,�쐼,1.2,�L
2017/10/28,23:00,0.902,1.438,0.905,1.715,1.169,0.498,0.904,0.845,��,1.5,�L
2017/10/28,23:10,0.903,1.439,0.903,1.713,1.169,0.501,0.907,0.843,���쐼,1.5,�L
2017/10/28,23:20,0.901,1.438,0.903,1.715,1.167,0.499,0.906,0.843,���쐼,1.7,�L
2017/10/28,23:30,0.901,1.438,0.903,1.711,1.165,0.497,0.905,0.843,�쐼,1.7,�L
2017/10/28,23:40,0.900,1.437,0.903,1.712,1.165,0.499,0.906,0.844,�쐼,2.0,�L
2017/10/28,23:50,0.899,1.435,0.901,1.710,1.164,0.498,0.905,0.843,�쐼,0.8,�L
